N8VIM Weather Reports


time (UTC)temp
C
wind
direction
speed
KPH
gust
KPH
rain 1hr
cm
rain 24hr
cm
rain mn
cm
humidity
%
barometer
mb
20260508052017 6 326 1.6 4.8 320.42 0.00 0.00 71 1008.8
20260508051519 6 297 3.2 4.8 320.42 0.00 0.00 70 1008.9
20260508051017 6 298 0.0 4.8 320.42 0.00 0.00 70 1008.9
20260508050018 6 274 3.2 8.0 320.42 0.00 0.00 70 1009.1
20260508045517 6 307 3.2 6.4 320.42 0.00 0.00 71 1009.1
20260508045017 6 319 1.6 8.0 320.42 0.00 0.00 71 1009.1
20260508044519 6 285 4.8 8.0 320.42 0.00 0.00 72 1009.1
20260508044017 6 319 3.2 4.8 320.42 0.00 0.00 73 1009.1
20260508043517 6 273 3.2 4.8 320.42 0.00 0.00 72 1009.1
20260508043018 6 298 1.6 4.8 320.42 0.00 0.00 71 1009.2
20260508042519 6 0 0.0 0.0 320.42 0.00 0.00 71 1009.2
20260508042017 6 294 0.0 3.2 320.42 0.00 0.00 70 1009.2
20260508041519 6 293 1.6 4.8 320.42 0.00 0.00 68 1009.2
20260508041017 7 291 1.6 3.2 320.42 0.00 0.00 67 1009.2
20260508040517 7 266 1.6 3.2 320.42 0.00 0.00 66 1009.2
20260508040018 7 274 0.0 3.2 320.42 0.00 0.00 64 1009.2
20260508035517 7 0 0.0 0.0 320.42 0.00 0.03 64 1009.1
20260508035017 7 304 0.0 6.4 320.42 0.00 0.03 63 1009.1
20260508034518 7 281 0.0 1.6 320.42 0.00 0.03 63 1009.1
20260508034018 7 0 0.0 0.0 320.42 0.00 0.03 62 1009.1
20260508033518 7 287 0.0 4.8 320.42 0.00 0.03 63 1009.1
20260508033018 7 264 3.2 6.4 320.42 0.00 0.03 63 1009.1
20260508032517 7 290 3.2 8.0 320.42 0.00 0.03 63 1009.2
20260508032017 7 294 1.6 8.0 320.42 0.00 0.03 64 1009.1
20260508031519 7 300 3.2 4.8 320.42 0.00 0.03 63 1009.2
20260508031017 7 270 3.2 11.3 320.42 0.00 0.03 64 1009.1
20260508030518 7 301 4.8 9.7 320.42 0.00 0.03 63 1009.0
20260508030018 7 294 3.2 8.0 320.42 0.00 0.03 64 1008.9
20260508025517 7 266 3.2 4.8 320.42 0.00 0.03 64 1009.0
20260508025017 7 276 1.6 8.0 320.42 0.00 0.03 64 1009.0
20260508024517 7 274 1.6 9.7 320.42 0.00 0.03 63 1008.9
20260508024017 7 301 3.2 6.4 320.42 0.00 0.03 63 1009.0
20260508023517 7 287 4.8 6.4 320.42 0.00 0.03 62 1009.0
20260508023018 7 280 3.2 6.4 320.42 0.00 0.03 64 1009.0
20260508022517 8 267 3.2 6.4 320.42 0.00 0.03 64 1008.9
20260508022017 8 314 3.2 6.4 320.42 0.00 0.03 65 1009.0
20260508021519 8 266 0.0 4.8 320.42 0.00 0.03 64 1008.9
20260508021017 8 295 1.6 8.0 320.42 0.00 0.03 63 1008.9
20260508020517 8 298 1.6 6.4 320.42 0.00 0.03 61 1009.0
20260508020017 8 284 1.6 4.8 320.42 0.00 0.03 62 1008.9
20260508015017 8 298 3.2 6.4 320.42 0.00 0.03 61 1008.9
20260508014518 8 284 3.2 4.8 320.42 0.00 0.03 61 1008.8
20260508014017 8 323 0.0 3.2 320.42 0.00 0.03 61 1008.8
20260508013517 8 287 1.6 9.7 320.42 0.00 0.03 60 1008.7
20260508013017 9 295 0.0 4.8 320.42 0.00 0.03 60 1008.6
20260508012517 9 281 0.0 4.8 320.42 0.00 0.03 59 1008.5
20260508012017 9 0 0.0 0.0 320.42 0.00 0.03 60 1008.4
20260508011517 10 294 0.0 4.8 320.42 0.00 0.03 58 1008.3
20260508011017 10 290 1.6 3.2 320.42 0.00 0.03 57 1008.3
20260508010517 10 277 0.0 4.8 320.42 0.00 0.03 57 1008.2
20260508010017 10 273 0.0 4.8 320.42 0.00 0.03 55 1008.1
20260508005517 10 253 0.0 6.4 320.42 0.00 0.03 54 1008.1
20260508005017 10 285 0.0 6.4 320.42 0.00 0.03 52 1008.0
20260508004517 11 271 1.6 4.8 320.42 0.00 0.03 51 1007.9
20260508004017 11 288 0.0 6.4 320.42 0.00 0.03 51 1007.9
20260508003017 11 267 1.6 8.0 320.42 0.00 0.03 49 1007.8
20260508002517 11 297 4.8 6.4 320.42 0.00 0.03 47 1007.8
20260508002017 11 294 1.6 12.9 320.42 0.00 0.03 47 1007.9
20260508001517 12 290 4.8 9.7 320.42 0.00 0.03 46 1007.8
20260508001017 12 277 3.2 8.0 320.42 0.00 0.03 45 1007.8
20260508000517 12 284 3.2 11.3 320.42 0.00 0.03 45 1007.7
20260508000017 12 285 3.2 9.7 320.42 0.00 0.03 45 1007.7
20260507235517 12 284 6.4 9.7 320.42 0.00 0.03 44 1007.7
20260507235017 12 229 3.2 8.0 320.42 0.00 0.03 44 1007.6
20260507234518 12 293 4.8 8.0 320.42 0.00 0.03 41 1007.5
20260507234017 13 277 4.8 11.3 320.42 0.00 0.03 40 1007.5
20260507233017 13 264 4.8 9.7 320.42 0.00 0.03 39 1007.5
20260507232517 13 322 4.8 8.0 320.42 0.00 0.03 38 1007.5
20260507232017 13 300 3.2 14.5 320.42 0.00 0.03 38 1007.4
20260507231518 13 263 1.6 17.7 320.42 0.00 0.03 37 1007.3
20260507231016 13 295 12.9 17.7 320.42 0.00 0.03 35 1007.2
20260507230017 14 284 11.3 27.4 320.42 0.00 0.03 34 1007.2
20260507225516 14 288 6.4 24.1 320.42 0.00 0.03 36 1007.0
20260507225016 15 294 9.7 22.5 320.42 0.00 0.03 34 1007.0
20260507224517 15 287 12.9 17.7 320.42 0.00 0.03 33 1007.1
20260507224017 15 328 8.0 12.9 320.42 0.00 0.03 33 1007.0
20260507223517 15 287 6.4 17.7 320.42 0.00 0.03 34 1006.9
20260507223017 15 270 11.3 11.3 320.42 0.00 0.03 32 1006.9
20260507222516 15 283 8.0 16.1 320.42 0.00 0.03 33 1006.9
20260507222016 16 305 9.7 16.1 320.42 0.00 0.03 32 1006.8
20260507221517 16 250 9.7 16.1 320.42 0.00 0.03 33 1006.8
20260507221016 15 284 11.3 19.3 320.42 0.00 0.03 32 1006.7
20260507220017 16 314 4.8 20.9 320.42 0.00 0.03 34 1006.7
20260507215516 15 291 4.8 20.9 320.42 0.00 0.03 33 1006.6
20260507215017 15 290 9.7 22.5 320.42 0.00 0.03 32 1006.6
20260507214520 15 304 11.3 19.3 320.42 0.00 0.03 32 1006.5
20260507214016 15 257 8.0 19.3 320.42 0.00 0.03 32 1006.4
20260507213516 15 280 0.0 16.1 320.42 0.00 0.03 34 1006.4
20260507213017 16 284 4.8 14.5 320.42 0.00 0.03 34 1006.4
20260507212016 16 274 14.5 19.3 320.42 0.00 0.03 31 1006.5
20260507211517 16 309 8.0 19.3 320.42 0.00 0.03 31 1006.4
20260507210518 16 287 3.2 27.4 320.42 0.00 0.03 29 1006.3
20260507205516 16 257 4.8 17.7 320.42 0.00 0.03 31 1006.3
20260507205016 16 276 11.3 17.7 320.42 0.00 0.03 32 1006.4
20260507204517 16 288 11.3 27.4 320.42 0.00 0.03 30 1006.4
20260507204016 16 321 14.5 19.3 320.42 0.00 0.03 33 1006.3
20260507203518 16 294 6.4 16.1 320.42 0.00 0.03 33 1006.4
20260507203017 16 270 4.8 19.3 320.42 0.00 0.03 33 1006.4
20260507202517 16 293 9.7 14.5 320.42 0.00 0.03 31 1006.3
20260507202016 16 276 4.8 20.9 320.42 0.00 0.03 31 1006.3
20260507201517 16 195 12.9 20.9 320.42 0.00 0.03 30 1006.3
20260507201016 16 312 11.3 25.7 320.42 0.00 0.03 31 1006.3
20260507200516 16 284 14.5 29.0 320.42 0.00 0.03 32 1006.3
20260507200017 16 284 12.9 24.1 320.42 0.00 0.03 32 1006.2
20260507195516 16 266 6.4 32.2 320.42 0.00 0.03 33 1006.4
20260507195016 16 280 16.1 25.7 320.42 0.00 0.03 32 1006.4
20260507194517 16 288 12.9 27.4 320.42 0.00 0.03 31 1006.5
20260507194016 16 270 17.7 25.7 320.42 0.00 0.03 30 1006.4
20260507193516 17 304 11.3 17.7 320.42 0.00 0.03 32 1006.5
20260507193017 17 260 11.3 14.5 320.42 0.00 0.03 34 1006.4
20260507192516 16 277 6.4 19.3 320.42 0.00 0.03 35 1006.5
20260507192016 16 263 4.8 32.2 320.42 0.00 0.03 35 1006.5
20260507191517 16 267 14.5 20.9 320.42 0.00 0.03 33 1006.6
20260507191016 16 255 6.4 27.4 320.42 0.00 0.03 33 1006.6
20260507190516 16 252 11.3 27.4 320.42 0.00 0.03 34 1006.8
20260507190017 16 278 16.1 29.0 320.42 0.00 0.03 31 1006.7
20260507185516 16 271 9.7 22.5 320.42 0.00 0.03 33 1006.7
20260507185016 16 273 14.5 29.0 320.42 0.00 0.03 32 1006.8
20260507184517 16 266 6.4 19.3 320.42 0.00 0.03 35 1006.8
20260507184016 16 245 9.7 33.8 320.42 0.00 0.03 33 1006.9
20260507183516 16 269 12.9 27.4 320.42 0.00 0.03 31 1007.0
20260507183017 16 298 11.3 22.5 320.42 0.00 0.03 31 1007.1
20260507182516 16 277 3.2 22.5 320.42 0.00 0.03 36 1007.1
20260507182018 16 290 11.3 20.9 320.42 0.00 0.03 34 1007.2
20260507181517 16 271 9.7 27.4 320.42 0.00 0.03 30 1007.2
20260507181016 16 262 16.1 27.4 320.42 0.00 0.03 29 1007.3
20260507180519 16 288 11.3 19.3 320.42 0.00 0.03 31 1007.2
20260507180017 16 246 6.4 20.9 320.42 0.00 0.03 33 1007.3
20260507175516 16 271 9.7 20.9 320.42 0.00 0.03 29 1007.3
20260507175016 16 267 9.7 19.3 320.42 0.00 0.03 30 1007.3
20260507174518 16 259 9.7 16.1 320.42 0.00 0.03 34 1007.4
20260507174016 16 285 4.8 19.3 320.42 0.00 0.03 38 1007.3
20260507173516 16 288 8.0 30.6 320.42 0.00 0.03 31 1007.3
20260507173017 16 297 9.7 25.7 320.42 0.00 0.03 33 1007.1
20260507172516 16 274 16.1 27.4 320.42 0.00 0.03 35 1007.3
20260507172016 16 269 11.3 19.3 320.42 0.00 0.03 32 1007.2
20260507171517 16 256 8.0 16.1 320.42 0.00 0.03 35 1007.1
20260507171016 16 291 12.9 27.4 320.42 0.00 0.03 35 1007.2
20260507170518 16 273 12.9 24.1 320.42 0.00 0.03 33 1007.2
20260507170018 15 280 12.9 27.4 320.42 0.00 0.03 36 1007.4
20260507165516 15 302 16.1 22.5 320.42 0.00 0.03 33 1007.4
20260507165016 15 288 11.3 22.5 320.42 0.00 0.03 33 1007.6
20260507164519 15 263 11.3 25.7 320.42 0.00 0.03 35 1007.6
20260507163017 15 255 9.7 16.1 320.42 0.00 0.03 39 1007.8
20260507162017 15 271 12.9 22.5 320.42 0.00 0.03 41 1007.9
20260507161516 15 277 12.9 20.9 320.42 0.00 0.03 41 1008.0
20260507161016 15 270 9.7 17.7 320.42 0.00 0.03 42 1008.1
20260507160516 14 294 6.4 22.5 320.42 0.00 0.03 45 1008.1
20260507160020 14 295 9.7 22.5 320.42 0.00 0.03 43 1008.1
20260507155517 14 277 11.3 19.3 320.42 0.00 0.03 42 1008.1
20260507154519 14 262 8.0 17.7 320.42 0.00 0.03 45 1008.1
20260507154016 14 274 6.4 19.3 320.42 0.00 0.03 48 1008.1
20260507153516 14 252 8.0 24.1 320.42 0.00 0.03 44 1008.2
20260507153017 14 288 8.0 32.2 320.42 0.00 0.03 48 1008.2
20260507152516 14 263 16.1 20.9 320.42 0.00 0.03 52 1008.2
20260507152017 14 287 11.3 14.5 320.42 0.00 0.03 52 1008.3
20260507151516 14 252 9.7 27.4 320.42 0.00 0.03 53 1008.3
20260507151016 14 267 8.0 16.1 320.42 0.00 0.03 54 1008.2
20260507150516 14 264 8.0 19.3 320.42 0.00 0.03 54 1008.3
20260507150020 13 262 12.9 19.3 320.42 0.00 0.03 53 1008.3
20260507145016 13 277 9.7 22.5 320.42 0.00 0.03 53 1008.4
20260507144517 13 267 9.7 25.7 320.42 0.00 0.03 56 1008.4
20260507144016 13 287 14.5 25.7 320.42 0.00 0.03 55 1008.5
20260507143516 13 287 6.4 19.3 320.42 0.00 0.03 60 1008.5
20260507143016 13 288 11.3 20.9 320.42 0.00 0.03 57 1008.5
20260507142518 13 284 8.0 16.1 320.42 0.00 0.03 59 1008.5
20260507141518 13 263 4.8 14.5 320.42 0.00 0.03 62 1008.4
20260507141016 13 276 4.8 19.3 320.42 0.00 0.03 62 1008.4
20260507140518 13 295 12.9 17.7 320.42 0.00 0.03 62 1008.3
20260507135516 13 294 8.0 19.3 320.42 0.00 0.03 62 1008.3
20260507135016 12 291 8.0 14.5 320.42 0.00 0.03 62 1008.4
20260507134516 12 285 4.8 17.7 320.42 0.00 0.03 66 1008.4
20260507134016 13 277 12.9 17.7 320.42 0.00 0.03 64 1008.4
20260507133516 13 284 12.9 16.1 320.42 0.00 0.03 63 1008.3
20260507133016 13 304 6.4 11.3 320.42 0.00 0.03 61 1008.2
20260507132517 12 309 4.8 12.9 320.42 0.00 0.03 63 1008.3
20260507132016 12 266 1.6 11.3 320.42 0.00 0.03 67 1008.4
20260507131516 12 349 3.2 8.0 320.42 0.00 0.03 67 1008.5
20260507131016 12 326 3.2 9.7 320.42 0.00 0.03 67 1008.6
20260507130516 12 290 6.4 11.3 320.42 0.00 0.03 67 1008.7
20260507130016 12 304 3.2 16.1 320.42 0.00 0.03 67 1008.7
20260507125516 11 280 8.0 19.3 320.42 0.00 0.03 68 1008.7
20260507125016 11 291 3.2 11.3 320.42 0.00 0.03 72 1008.7
20260507124516 11 288 6.4 12.9 320.42 0.00 0.03 70 1008.7
20260507124016 11 285 4.8 8.0 320.42 0.00 0.03 76 1008.8
20260507123516 11 264 4.8 11.3 320.42 0.00 0.03 73 1008.7
20260507123016 10 295 1.6 11.3 320.42 0.00 0.03 77 1008.8
20260507122015 10 264 3.2 8.0 320.42 0.00 0.03 79 1008.9
20260507121517 10 264 1.6 9.7 320.42 0.00 0.03 80 1008.9
20260507121015 10 308 6.4 12.9 320.42 0.00 0.03 80 1009.0
20260507120016 10 277 1.6 6.4 320.42 0.00 0.03 83 1008.9
20260507115515 9 264 3.2 6.4 320.42 0.00 0.03 83 1008.8
20260507115015 9 335 1.6 3.2 320.42 0.00 0.03 84 1009.0
20260507114518 9 17 1.6 6.4 320.42 0.00 0.03 85 1008.8
20260507114015 9 35 0.0 8.0 320.42 0.00 0.03 85 1008.7
20260507113515 9 246 3.2 4.8 320.42 0.00 0.03 85 1008.7
20260507113016 9 288 3.2 12.9 320.42 0.00 0.03 85 1008.8
20260507112516 9 290 1.6 3.2 320.42 0.00 0.03 86 1008.7
20260507112015 9 200 0.0 4.8 320.42 0.00 0.03 87 1008.7
20260507111516 8 267 1.6 3.2 320.42 0.00 0.03 87 1008.6
20260507111018 8 255 0.0 4.8 320.42 0.00 0.03 88 1008.6
20260507110515 8 0 0.0 0.0 320.42 0.00 0.03 89 1008.7
20260507110016 8 184 0.0 3.2 320.42 0.00 0.03 89 1008.6
20260507105515 8 0 1.6 0.0 320.42 0.00 0.03 88 1008.6
20260507105015 8 270 0.0 6.4 320.42 0.00 0.03 88 1008.6
20260507104518 8 307 3.2 1.6 320.42 0.00 0.03 87 1008.5
20260507104016 8 264 0.0 3.2 320.42 0.00 0.03 88 1008.3
20260507103515 8 335 0.0 1.6 320.42 0.00 0.03 87 1008.2
20260507103016 8 187 0.0 3.2 320.42 0.00 0.03 88 1008.0
20260507102015 8 269 1.6 8.0 320.42 0.00 0.03 88 1007.9
20260507101518 8 273 3.2 8.0 320.42 0.00 0.03 88 1008.1
20260507101016 8 280 4.8 8.0 320.42 0.00 0.03 88 1007.9
20260507100515 8 267 1.6 4.8 320.42 0.00 0.03 89 1007.9
20260507100016 8 257 0.0 8.0 320.42 0.00 0.03 89 1008.0
20260507095516 8 245 1.6 4.8 320.42 0.00 0.03 89 1007.9
20260507095015 8 276 0.0 8.0 320.42 0.00 0.03 89 1007.9
20260507094516 8 266 4.8 6.4 320.42 0.00 0.03 89 1008.0
20260507094015 8 308 4.8 8.0 320.42 0.00 0.03 89 1008.0
20260507093518 8 269 4.8 8.0 320.42 0.00 0.03 89 1008.3
20260507093016 8 278 1.6 6.4 320.42 0.00 0.03 89 1008.3
20260507092515 8 298 3.2 6.4 320.42 0.00 0.03 89 1008.1
20260507092016 8 281 4.8 11.3 320.42 0.00 0.03 89 1008.4
20260507091516 8 284 4.8 11.3 320.42 0.00 0.03 88 1008.3
20260507091016 8 257 1.6 4.8 320.42 0.00 0.03 89 1008.3
20260507090515 8 266 0.0 8.0 320.42 0.00 0.03 90 1008.2
20260507090016 8 285 1.6 8.0 320.42 0.00 0.03 90 1008.3
20260507085515 8 231 1.6 8.0 320.42 0.00 0.03 90 1008.5
20260507085015 8 284 3.2 11.3 320.42 0.00 0.03 90 1008.4
20260507084519 9 294 6.4 11.3 320.42 0.00 0.03 90 1008.2
20260507083016 9 307 0.0 3.2 320.42 0.00 0.03 90 1008.3
20260507082015 10 0 0.0 0.0 320.42 0.00 0.03 89 1008.1
20260507081516 10 0 0.0 0.0 320.42 0.00 0.03 89 1008.1
20260507081015 10 312 0.0 3.2 320.42 0.00 0.03 88 1008.2
20260507080017 10 293 0.0 8.0 320.42 0.00 0.03 87 1008.0
20260507075515 10 345 0.0 3.2 320.42 0.00 0.03 86 1007.8
20260507075015 10 257 1.6 11.3 320.42 0.00 0.03 85 1007.9
20260507074518 10 307 6.4 12.9 320.42 0.00 0.03 84 1008.0
20260507074015 10 295 6.4 14.5 320.42 0.00 0.03 87 1008.0
20260507073515 10 305 3.2 11.3 320.42 0.00 0.03 86 1008.1
20260507073016 10 262 4.8 8.0 320.42 0.00 0.03 88 1008.3
20260507072515 10 267 3.2 6.4 320.42 0.00 0.03 88 1008.3
20260507072015 10 308 1.6 6.4 320.42 0.00 0.03 88 1007.8
20260507071516 10 295 4.8 4.8 320.42 0.00 0.03 87 1007.7
20260507071015 10 284 1.6 9.7 320.42 0.00 0.03 87 1007.6
20260507070515 10 267 6.4 8.0 320.42 0.00 0.03 88 1007.6
20260507070016 10 301 4.8 11.3 320.42 0.00 0.03 88 1007.5
20260507065515 10 318 0.0 4.8 320.42 0.00 0.03 89 1007.4
20260507065015 10 252 3.2 6.4 320.42 0.00 0.03 89 1007.6
20260507064516 10 293 0.0 14.5 320.42 0.00 0.03 90 1007.5
20260507064016 11 312 8.0 6.4 320.42 0.00 0.03 90 1007.1
20260507063515 11 305 0.0 6.4 320.42 0.00 0.03 92 1007.2
20260507063016 11 273 4.8 9.7 320.42 0.00 0.03 92 1007.4
20260507062515 11 174 3.2 3.2 320.42 0.00 0.03 92 1007.5
20260507062015 11 0 0.0 0.0 320.42 0.00 0.03 92 1007.5
20260507061516 11 0 0.0 0.0 320.42 0.00 0.03 91 1007.3
20260507061015 11 278 0.0 6.4 320.42 0.00 0.03 91 1007.3
20260507060515 11 252 0.0 4.8 320.42 0.00 0.03 91 1007.5
20260507060015 11 271 3.2 6.4 320.42 0.00 0.03 90 1007.4
20260507055515 11 300 3.2 3.2 320.42 0.00 0.03 91 1007.5
20260507055015 11 307 1.6 6.4 320.42 0.00 0.03 92 1007.4
20260507054516 11 287 3.2 9.7 320.42 0.00 0.03 91 1007.5
20260507054015 11 0 4.8 0.0 320.42 0.00 0.03 92 1007.9
20260507053515 11 290 0.0 4.8 320.42 0.00 0.03 92 1007.9
20260507053016 11 287 1.6 6.4 320.42 0.00 0.03 91 1008.0
20260507052515 11 301 0.0 8.0 320.42 0.00 0.03 91 1007.9